When you browse on this site, cookies collect data to enhance your experience and personalize the content and advertising you see.
Visit our Privacy Policy to learn more. By continuing to use the site, you agree to this use of cookies and data.
  • In Germany
  • List of Countries
  • For 7 days
  • Water Temperature
  • Satellite Maps
  • Weather Map
  • Weather Widgets
  • user-avatar
    Login

    Hourly Weather Megri

    Today, 19 July, Friday

    Time Temperature Precipitation Wind Pressure Humidity
    00:00 +20°C° 0 mm 2 mps 620 mmHg 48%
    01:00 +20°C° 0 mm 2 mps 620 mmHg 48%
    02:00 +19°C° 0 mm 2 mps 620 mmHg 49%
    03:00 +20°C° 0 mm 1 mps 620 mmHg 50%
    04:00 +20°C° 0 mm 1 mps 621 mmHg 48%
    05:00 +21°C° 0 mm 1 mps 621 mmHg 46%
    06:00 +22°C° 0 mm 1 mps 622 mmHg 44%
    07:00 +24°C° 0 mm 1 mps 622 mmHg 40%
    08:00 +25°C° 0 mm 2 mps 623 mmHg 37%
    09:00 +27°C° 0 mm 2 mps 623 mmHg 34%
    10:00 +28°C° 0 mm 3 mps 623 mmHg 32%
    11:00 +29°C° 0 mm 3 mps 624 mmHg 31%
    12:00 +30°C° 0 mm 4 mps 624 mmHg 29%
    13:00 +30°C° 0 mm 4 mps 624 mmHg 30%
    14:00 +32°C° 0 mm 4 mps 623 mmHg 32%
    15:00 +32°C° 0 mm 4 mps 623 mmHg 33%
    16:00 +29°C° 0 mm 4 mps 623 mmHg 37%
    17:00 +28°C° 0 mm 5 mps 622 mmHg 41%
    18:00 +26°C° 0 mm 5 mps 622 mmHg 45%
    19:00 +25°C° 0 mm 5 mps 622 mmHg 50%
    20:00 +22°C° 0 mm 5 mps 622 mmHg 56%
    21:00 +20°C° 0 mm 5 mps 622 mmHg 61%
    22:00 +20°C° 0 mm 5 mps 622 mmHg 62%
    23:00 +19°C° 0 mm 4 mps 622 mmHg 64%

    Tomorrow, 20 July, Saturday

    Time Temperature Precipitation Wind Pressure Humidity
    00:00 +18°C° 0 mm 4 mps 623 mmHg 66%
    01:00 +18°C° 0 mm 4 mps 623 mmHg 66%
    02:00 +18°C° 0 mm 3 mps 623 mmHg 67%
    03:00 +17°C° 0 mm 3 mps 623 mmHg 68%
    04:00 +18°C° 0 mm 3 mps 623 mmHg 66%
    05:00 +18°C° 0 mm 3 mps 624 mmHg 64%
    06:00 +18°C° 0 mm 3 mps 624 mmHg 62%
    07:00 +20°C° 0 mm 4 mps 625 mmHg 56%
    08:00 +22°C° 0 mm 4 mps 626 mmHg 50%
    09:00 +25°C° 0 mm 4 mps 626 mmHg 43%
    10:00 +26°C° 0 mm 4 mps 627 mmHg 39%
    11:00 +28°C° 0 mm 5 mps 627 mmHg 35%
    12:00 +30°C° 0 mm 5 mps 627 mmHg 31%
    13:00 +30°C° 0 mm 5 mps 627 mmHg 30%
    14:00 +32°C° 0 mm 5 mps 627 mmHg 29%
    15:00 +32°C° 0 mm 6 mps 627 mmHg 28%
    16:00 +30°C° 0 mm 6 mps 626 mmHg 31%
    17:00 +28°C° 0 mm 6 mps 626 mmHg 35%
    18:00 +27°C° 0 mm 5 mps 625 mmHg 38%
    19:00 +25°C° 0 mm 5 mps 625 mmHg 43%
    20:00 +22°C° 0 mm 5 mps 625 mmHg 47%
    21:00 +21°C° 0 mm 5 mps 625 mmHg 51%
    22:00 +20°C° 0 mm 5 mps 625 mmHg 53%
    23:00 +19°C° 0 mm 4 mps 625 mmHg 54%

    Day after tomorrow, 21 July, Sunday

    Time Temperature Precipitation Wind Pressure Humidity
    00:00 +19°C° 0 mm 4 mps 625 mmHg 56%
    01:00 +19°C° 0 mm 4 mps 625 mmHg 56%
    02:00 +18°C° 0 mm 4 mps 625 mmHg 56%
    03:00 +18°C° 0 mm 4 mps 625 mmHg 57%
    04:00 +18°C° 0 mm 4 mps 625 mmHg 56%
    05:00 +19°C° 0 mm 4 mps 626 mmHg 55%
    06:00 +19°C° 0 mm 4 mps 626 mmHg 54%
    07:00 +21°C° 0 mm 4 mps 627 mmHg 47%
    08:00 +23°C° 0 mm 4 mps 627 mmHg 41%
    09:00 +27°C° 0 mm 4 mps 628 mmHg 35%
    10:00 +28°C° 0 mm 4 mps 628 mmHg 31%
    11:00 +30°C° 0 mm 4 mps 628 mmHg 28%
    12:00 +33°C° 0 mm 4 mps 629 mmHg 24%
    13:00 +34°C° 0 mm 4 mps 628 mmHg 23%
    14:00 +34°C° 0 mm 4 mps 628 mmHg 22%
    15:00 +35°C° 0 mm 4 mps 627 mmHg 21%
    16:00 +33°C° 0 mm 4 mps 627 mmHg 25%
    17:00 +32°C° 0 mm 4 mps 626 mmHg 29%
    18:00 +30°C° 0 mm 5 mps 626 mmHg 33%
    19:00 +28°C° 0 mm 4 mps 625 mmHg 37%
    20:00 +26°C° 0 mm 4 mps 625 mmHg 41%
    21:00 +23°C° 0 mm 4 mps 625 mmHg 45%
    22:00 +23°C° 0 mm 4 mps 625 mmHg 46%
    23:00 +23°C° 0 mm 4 mps 625 mmHg 46%

    22 July, Monday

    Time Temperature Precipitation Wind Pressure Humidity
    00:00 +23°C° 0 mm 4 mps 625 mmHg 47%
    01:00 +22°C° 0 mm 3 mps 624 mmHg 47%
    02:00 +22°C° 0 mm 3 mps 624 mmHg 47%
    03:00 +22°C° 0 mm 3 mps 624 mmHg 47%
    04:00 +24°C° 0 mm 2 mps 624 mmHg 46%
    05:00 +24°C° 0 mm 2 mps 625 mmHg 45%
    06:00 +24°C° 0 mm 2 mps 625 mmHg 44%
    07:00 +26°C° 0 mm 2 mps 625 mmHg 38%
    08:00 +29°C° 0 mm 2 mps 626 mmHg 32%
    09:00 +31°C° 0 mm 2 mps 627 mmHg 26%
    10:00 +32°C° 0 mm 2 mps 627 mmHg 23%
    11:00 +35°C° 0 mm 2 mps 627 mmHg 21%
    12:00 +36°C° 0 mm 2 mps 627 mmHg 18%
    13:00 +36°C° 0 mm 3 mps 626 mmHg 19%
    14:00 +36°C° 0 mm 3 mps 626 mmHg 19%
    15:00 +36°C° 0 mm 3 mps 625 mmHg 19%
    16:00 +35°C° 0 mm 3 mps 625 mmHg 22%
    17:00 +34°C° 0 mm 4 mps 624 mmHg 26%
    18:00 +33°C° 0 mm 4 mps 624 mmHg 29%
    19:00 +30°C° 0 mm 4 mps 623 mmHg 35%
    20:00 +27°C° 0 mm 4 mps 623 mmHg 41%
    21:00 +25°C° 0 mm 4 mps 622 mmHg 48%
    22:00 +25°C° 0 mm 4 mps 622 mmHg 49%
    23:00 +24°C° 0 mm 3 mps 622 mmHg 50%

    23 July, Tuesday

    Time Temperature Precipitation Wind Pressure Humidity
    00:00 +24°C° 0 mm 3 mps 622 mmHg 51%
    01:00 +24°C° 0 mm 3 mps 622 mmHg 50%
    02:00 +22°C° 0 mm 3 mps 622 mmHg 50%
    03:00 +22°C° 0 mm 3 mps 621 mmHg 50%
    04:00 +22°C° 0 mm 3 mps 622 mmHg 50%
    05:00 +22°C° 0 mm 3 mps 622 mmHg 49%
    06:00 +22°C° 0 mm 3 mps 622 mmHg 49%
    07:00 +25°C° 0 mm 3 mps 623 mmHg 44%
    08:00 +27°C° 0 mm 3 mps 623 mmHg 39%
    09:00 +29°C° 0 mm 3 mps 624 mmHg 33%
    10:00 +31°C° 0 mm 3 mps 624 mmHg 31%
    11:00 +33°C° 0 mm 3 mps 624 mmHg 28%
    12:00 +34°C° 0 mm 3 mps 624 mmHg 25%
    13:00 +34°C° 0 mm 4 mps 623 mmHg 25%
    14:00 +34°C° 0 mm 4 mps 623 mmHg 25%
    15:00 +34°C° 0 mm 5 mps 623 mmHg 25%
    16:00 +33°C° 0 mm 4 mps 622 mmHg 30%
    17:00 +32°C° 0 mm 4 mps 622 mmHg 34%
    18:00 +29°C° 0 mm 4 mps 621 mmHg 38%
    19:00 +27°C° 0 mm 4 mps 621 mmHg 44%
    20:00 +26°C° 0 mm 4 mps 621 mmHg 50%
    21:00 +23°C° 0 mm 4 mps 621 mmHg 56%
    22:00 +22°C° 0 mm 3 mps 621 mmHg 57%
    23:00 +21°C° 0 mm 3 mps 621 mmHg 59%

    24 July, Wednesday

    Time Temperature Precipitation Wind Pressure Humidity
    00:00 +21°C° 0 mm 2 mps 620 mmHg 60%
    01:00 +20°C° 0 mm 2 mps 620 mmHg 60%
    02:00 +20°C° 0 mm 2 mps 620 mmHg 61%
    03:00 +21°C° 0 mm 1 mps 620 mmHg 61%
    04:00 +21°C° 0 mm 1 mps 621 mmHg 60%
    05:00 +22°C° 0 mm 1 mps 621 mmHg 58%
    06:00 +22°C° 0 mm 1 mps 622 mmHg 57%
    07:00 +24°C° 0 mm 1 mps 622 mmHg 49%
    08:00 +27°C° 0 mm 1 mps 623 mmHg 41%
    09:00 +29°C° 0 mm 1 mps 624 mmHg 33%
    10:00 +31°C° 0 mm 2 mps 624 mmHg 26%
    11:00 +32°C° 0 mm 2 mps 625 mmHg 20%
    12:00 +35°C° 0 mm 3 mps 625 mmHg 13%
    13:00 +36°C° 0 mm 3 mps 625 mmHg 12%
    14:00 +36°C° 0 mm 2 mps 625 mmHg 11%
    15:00 +37°C° 0 mm 2 mps 624 mmHg 10%
    16:00 +36°C° 0 mm 2 mps 624 mmHg 13%
    17:00 +35°C° 0 mm 3 mps 624 mmHg 15%
    18:00 +35°C° 0 mm 3 mps 623 mmHg 17%
    19:00 +31°C° 0 mm 3 mps 623 mmHg 24%
    20:00 +29°C° 0 mm 3 mps 623 mmHg 30%
    21:00 +26°C° 0 mm 2 mps 622 mmHg 37%
    22:00 +26°C° 0 mm 2 mps 622 mmHg 38%
    23:00 +25°C° 0 mm 2 mps 622 mmHg 39%
    Show more